Tracking 19709 objects as of 17-Jun-2019
HD Live streaming from Space Station
objects crossing your sky now

SL-12 DEB

Track SL-12 DEB now!
10-day predictions


NORAD ID: 24833
Int'l Code: 1997-028F
Perigee: 1,290.2 km
Apogee: 2,979.8 km
Inclination: 63.3 °
Period: 130.1 minutes
Semi major axis: 8506 km
RCS: 0.8365 m2 (medium)
Launch date: June 6, 1997
Source: Commonwealth of Independent States (former USSR) (CIS)
Launch site: TYURATAM MISSILE AND SPACE COMPLEX (TTMTR)

Note: This is SATELLITE DEBRIS
aabbcc
Your satellite tracking list
Your tracking list is empty




NASA's NSSDC Master Catalog

Two Line Element Set (TLE):
1 24833U 97028F   19167.92778951 -.00000286 +00000-0 -32408-2 0  9995
2 24833 063.3452 219.3710 0993190 021.8791 027.6493 11.06655135889983
Source of the keplerian elements: AFSPC